THOR ABLESTAR DEB, 659

Orbit data source: Space-Track

THOR ABLESTAR DEB, 659 is space debris in LEO originally from a launch on Thu, 29 Jun 1961 UTC launched from the Air Force Eastern Test Range (AFETR). Debris objects in space refer to the collection of defunct objects orbiting the Earth. Examples of debris include non-operational satellites, rocket bodies, and fragments generated from explosions, collisions, or faulty payload assembly.

Loading next visibility...
Identifier
659, 1961-015HL
Orbit
LEO
Country
Flag of USUS
Related business
Manufacturer
Unknown
Mission
Spacecraft
Bus & Motor
Unknown
Mass
Unknown
Launch date (UTC)
1961-06-29 (64 years ago)
Launch vehicle
Unknown
Launch site
Air Force Eastern Test Range (AFETR)
Object type
Payload
Rocket body
Debris
Shape & HBR
Unknown shape, 0.2 m
Radar Cross Section
Small (<0.1 m²)

Expand to show TLE details & history
Last TLE update: 16 hours ago

TLE from 16 hours ago
0 THOR ABLESTAR DEB
1 00659U 61015HL  25308.42006105  .00000583  00000-0  17187-2 0  9991
2 00659  67.1600 177.2577 0580517  68.4656 121.9529 12.66683576962555
Epoch: 2025-11-04T10:04Z
TLE epoch observation values (Epoch: 2025-11-04T10:04:53.274Z)
Latitude
-14.73905°
Longitude
168.45949°
Altitude
1,657.413 km
Speed
6.927 km/s
True Right ascension
00h 14m 21s
True Declination
-14° 39' 51"
Sunlit
Object was in full shadow at epoch
Visualization orbit readout
Latitude
Unknown
Longitude
Unknown
Altitude
Unknown
Speed
Unknown
Apparent Right ascension
Unknown
Apparent Declination
Unknown
Sunlit
N/A
Visualization observer readout
Local Sidereal Time
21:44:50
Azimuth
Unknown
Elevation
Unknown
Doppler factor
Unknown
Orbital elements
Apogee altitude
1,845.105 km
Perigee altitude
942.742 km
Semi-major axis
7,772.061 km
Eccentricity
0.05805
Inclination
67.16°
RAAN
177.2577°
Arg. of periapsis
68.4656°
True anomaly
127.38009°
Mean anomaly
121.9529°
Eccentric anomaly
124.68785°
Mean motion
3.16766 °/min
Orbital period
113.65 mins
BSTAR
0.0017187
Loading maneuver chart data...
Computing Atmospheric mass density...

Documentation

Showing up to 5 results
|